Total_Precipitation_Accumulation
1.32 1.51 1.45 1.31 1.33 1.29 1.42 1.63 1.75 1.53 1.37 1.33 1.32 1.35 1.54 1.63 1.78 1.68 1.51 1.57 1.42 1.26 1.15 1.11 1.15 1.23 1.29 1.33 1.42 1.52 1.64 1.71 1.83 2.04 2.36 2.72 3.06 3.39
1.47 1.60 1.59 1.48 1.48 1.43 1.47 1.62 1.84 1.81 1.58 1.36 1.40 1.37 1.43 1.33 1.51 1.40 1.43 1.56 1.41 1.30 1.25 1.20 1.15 1.16 1.17 1.23 1.26 1.24 1.24 1.26 1.27 1.33 1.45 1.64 1.88 2.19
1.48 1.53 1.53 1.64 1.67 1.65 1.75 1.78 1.86 1.99 1.80 1.47 1.51 1.62 1.61 1.44 1.41 1.37 1.35 1.35 1.31 1.33 1.27 1.23 1.17 1.11 1.05 1.00 1.05 1.07 1.06 1.07 1.07 1.08 1.11 1.15 1.18 1.25
1.54 1.70 1.63 1.67 1.74 1.82 1.96 1.88 1.92 2.17 2.13 1.85 1.80 1.87 1.74 1.64 1.60 1.50 1.31 1.24 1.23 1.36 1.27 1.19 1.10 1.03 0.99 0.94 0.92 0.91 0.91 0.91 0.92 0.93 0.94 0.94 0.94 0.95
1.74 1.82 1.85 2.00 1.91 1.95 2.00 1.97 2.02 2.24 2.43 2.24 2.07 2.15 2.08 1.85 1.77 1.56 1.39 1.39 1.23 1.28 1.30 1.20 1.13 1.09 1.02 1.02 1.01 0.95 0.88 0.82 0.78 0.80 0.86 0.89 0.93 0.95
1.91 1.93 1.94 2.00 2.05 2.16 2.17 2.25 2.39 2.56 2.70 2.58 2.45 2.52 2.52 2.33 2.10 1.75 1.61 1.51 1.40 1.30 1.38 1.32 1.27 1.21 1.12 1.04 1.00 0.99 0.96 0.91 0.86 0.82 0.83 0.86 0.91 0.94
1.87 1.91 1.88 1.97 2.02 2.12 2.09 2.26 2.55 2.74 2.87 2.88 2.83 2.98 2.91 2.73 2.39 2.02 1.92 1.81 1.68 1.48 1.42 1.33 1.30 1.22 1.18 1.14 1.09 1.05 1.02 0.99 0.97 0.97 0.96 0.94 0.92 0.91
1.93 1.95 1.93 1.90 1.83 1.86 1.93 2.04 2.21 2.41 2.63 2.83 2.90 2.97 3.01 2.88 2.66 2.41 2.08 1.84 1.68 1.55 1.58 1.48 1.37 1.29 1.16 1.08 1.18 1.13 1.07 1.03 1.01 1.01 1.02 1.03 1.03 1.03
1.93 1.93 1.76 1.64 1.67 1.60 1.73 1.78 1.77 1.84 1.97 2.23 2.44 2.48 2.69 2.81 2.71 2.36 2.06 1.81 1.62 1.58 1.62 1.53 1.43 1.34 1.23 1.19 1.27 1.14 1.08 1.04 1.00 0.98 1.00 1.01 1.03 1.05
1.71 1.74 1.74 1.64 1.62 1.69 1.69 1.59 1.45 1.44 1.54 1.57 1.68 1.91 2.17 2.49 2.59 2.46 2.38 2.10 1.80 1.58 1.54 1.50 1.36 1.27 1.19 1.16 1.27 1.17 1.08 1.05 1.02 0.99 0.95 0.93 0.94 0.96
1.68 1.68 1.68 1.54 1.62 1.57 1.52 1.53 1.45 1.38 1.40 1.44 1.49 1.68 1.95 2.18 2.40 2.41 2.30 2.18 1.92 1.62 1.48 1.44 1.33 1.30 1.26 1.17 1.15 1.18 1.09 1.07 1.06 1.04 1.00 0.97 0.95 0.95
1.73 1.74 1.76 1.60 1.66 1.60 1.57 1.59 1.50 1.42 1.41 1.39 1.42 1.48 1.55 1.82 2.11 2.09 2.04 2.06 1.89 1.66 1.40 1.40 1.33 1.33 1.34 1.12 0.95 0.93 0.94 1.02 1.05 1.00 0.97 0.95 0.95 0.83
1.64 1.60 1.65 1.66 1.51 1.41 1.36 1.35 1.41 1.44 1.45 1.39 1.35 1.35 1.41 1.51 1.70 1.80 1.85 1.82 1.73 1.54 1.33 1.37 1.35 1.30 1.23 1.09 0.96 0.89 0.84 0.83 0.86 0.90 0.94 0.97 0.95 0.80
1.45 1.43 1.43 1.40 1.23 1.11 1.00 0.98 1.05 1.05 1.11 1.21 1.21 1.17 1.20 1.27 1.43 1.68 1.84 1.84 1.70 1.55 1.48 1.45 1.37 1.31 1.25 1.12 0.98 0.90 0.86 0.80 0.74 0.70 0.74 0.96 1.01 0.99
1.20 1.40 1.40 1.27 1.16 1.09 1.04 0.96 0.88 0.81 0.89 0.99 0.95 0.96 1.02 1.12 1.28 1.57 1.82 1.99 1.89 1.63 1.49 1.45 1.40 1.34 1.28 1.08 0.88 0.79 0.79 0.77 0.72 0.70 0.71 0.78 0.84 0.91
1.22 1.37 1.43 1.40 1.31 1.23 1.13 0.97 0.80 0.79 0.82 0.87 0.91 0.93 1.03 1.13 1.24 1.34 1.58 1.79 1.88 1.72 1.49 1.40 1.35 1.35 1.25 1.06 0.93 0.80 0.72 0.71 0.71 0.75 0.79 0.79 0.82 0.87
1.36 1.46 1.57 1.59 1.55 1.43 1.27 1.11 0.98 0.93 0.89 0.89 0.98 1.00 1.03 1.06 1.09 1.14 1.32 1.48 1.49 1.40 1.34 1.34 1.36 1.36 1.34 1.25 1.04 0.81 0.73 0.66 0.64 0.76 0.88 0.88 0.82 0.83
1.20 1.36 1.63 1.69 1.69 1.66 1.53 1.34 1.18 1.08 1.03 1.01 1.04 1.04 1.04 1.09 1.12 1.18 1.25 1.37 1.38 1.28 1.25 1.23 1.35 1.46 1.42 1.31 1.07 0.87 0.75 0.69 0.67 0.77 0.85 0.86 0.81 0.80
0.93 1.11 1.40 1.61 1.69 1.71 1.62 1.42 1.23 1.19 1.21 1.15 1.11 1.09 1.09 1.12 1.20 1.24 1.27 1.34 1.39 1.34 1.26 1.30 1.38 1.45 1.39 1.16 0.96 0.85 0.84 0.81 0.84 0.84 0.83 0.83 0.79 0.75
0.81 0.97 1.22 1.47 1.56 1.61 1.59 1.51 1.39 1.34 1.32 1.28 1.24 1.21 1.19 1.21 1.20 1.22 1.25 1.29 1.33 1.40 1.34 1.32 1.33 1.32 1.28 1.20 1.10 0.97 0.91 0.96 1.01 0.97 0.89 0.90 0.90 0.92
0.96 0.99 1.12 1.33 1.50 1.60 1.63 1.62 1.56 1.50 1.46 1.45 1.40 1.36 1.34 1.38 1.33 1.25 1.26 1.35 1.38 1.41 1.33 1.13 1.11 1.29 1.45 1.60 1.46 1.12 0.97 0.99 1.08 1.12 1.06 1.09 1.08 1.06
1.16 1.14 1.18 1.32 1.48 1.62 1.65 1.62 1.65 1.62 1.59 1.57 1.52 1.47 1.42 1.43 1.41 1.39 1.40 1.43 1.36 1.32 1.31 1.25 1.33 1.48 1.53 1.51 1.35 1.21 1.12 1.07 1.13 1.19 1.15 1.09 1.05 0.97
1.36 1.31 1.32 1.40 1.49 1.58 1.58 1.54 1.55 1.61 1.59 1.55 1.51 1.49 1.44 1.40 1.40 1.44 1.44 1.47 1.44 1.41 1.47 1.52 1.51 1.49 1.44 1.42 1.37 1.33 1.30 1.24 1.22 1.18 1.06 1.02 0.89 0.81